Location: Unspecified
(38.7273°N, 77.0677°W)
Time: 22:39:33
(UTC-04:00)

ISS - Pass Details

Date: 29 June 2021
Orbit: 419 x 421 km, 51.6° (Epoch: 03 August)

Event Time Altitude Azimuth Distance (km) Brightness Sun altitude
Exits shadow 04:27:37 20° 255° (WSW) 1,025 -2.3 -13.0°
Maximum altitude 04:29:41 51° 325° (NW) 534 -3.2 -12.7°
Drops below altitude 10° 04:32:58 10° 43° (NE) 1,501 0.6 -12.2°
Sets 04:35:07 0° 48° (NE) 2,368 2.3 -11.9°
